TimeEDT,TemperatureF,Dew PointF,Humidity,Sea Level PressureIn,VisibilityMPH,Wind Direction,Wind SpeedMPH,Gust SpeedMPH,PrecipitationIn,Events,Conditions,WindDirDegrees,DateUTC
12:15 AM,75.2,75.2,100,30.16,10.0,NE,5.8,-,N/A,,Clear,40,2013-08-26 04:15:00
12:35 AM,75.2,75.2,100,30.15,10.0,NNE,5.8,-,N/A,,Clear,30,2013-08-26 04:35:00
12:55 AM,75.2,73.4,94,30.15,10.0,NNE,4.6,-,N/A,,Clear,20,2013-08-26 04:55:00
1:15 AM,75.2,73.4,94,30.15,10.0,NNE,4.6,-,N/A,,Clear,20,2013-08-26 05:15:00
1:35 AM,75.2,73.4,94,30.14,10.0,NNE,6.9,-,N/A,,Clear,20,2013-08-26 05:35:00
1:55 AM,75.2,75.2,100,30.14,10.0,NNE,4.6,-,N/A,,Clear,30,2013-08-26 05:55:00
2:15 AM,75.2,75.2,100,30.14,9.0,NE,4.6,-,N/A,,Clear,40,2013-08-26 06:15:00
2:35 AM,75.2,75.2,100,30.13,10.0,NNE,5.8,-,N/A,,Clear,20,2013-08-26 06:35:00
2:55 AM,75.2,75.2,100,30.12,10.0,North,4.6,-,N/A,,Clear,360,2013-08-26 06:55:00
3:15 AM,75.2,75.2,100,30.12,9.0,NE,3.5,-,N/A,,Clear,40,2013-08-26 07:15:00
3:35 AM,73.4,73.4,100,30.12,8.0,NNE,4.6,-,N/A,,Clear,30,2013-08-26 07:35:00
3:55 AM,73.4,73.4,100,30.11,8.0,NE,4.6,-,N/A,,Clear,40,2013-08-26 07:55:00
4:15 AM,73.4,73.4,100,30.11,8.0,Calm,Calm,-,N/A,,Clear,0,2013-08-26 08:15:00
4:35 AM,73.4,73.4,100,30.11,7.0,NNE,4.6,-,N/A,,Clear,20,2013-08-26 08:35:00
4:55 AM,73.4,73.4,100,30.11,7.0,NNE,4.6,-,N/A,,Clear,30,2013-08-26 08:55:00
5:15 AM,73.4,73.4,100,30.11,7.0,NNE,4.6,-,N/A,,Clear,20,2013-08-26 09:15:00
5:35 AM,73.4,73.4,100,30.12,7.0,NNE,4.6,-,N/A,,Clear,30,2013-08-26 09:35:00
5:55 AM,73.4,73.4,100,30.12,7.0,Calm,Calm,-,N/A,,Clear,0,2013-08-26 09:55:00
6:15 AM,73.4,73.4,100,30.12,7.0,Calm,Calm,-,N/A,,Partly Cloudy,0,2013-08-26 10:15:00
6:35 AM,73.4,73.4,100,30.12,5.0,Calm,Calm,-,N/A,,Partly Cloudy,0,2013-08-26 10:35:00
6:55 AM,73.4,73.4,100,30.12,7.0,NNE,3.5,-,N/A,,Clear,20,2013-08-26 10:55:00
7:15 AM,73.4,73.4,100,30.12,5.0,Calm,Calm,-,N/A,,Clear,0,2013-08-26 11:15:00
7:47 AM,73.4,73.4,100,30.13,5.0,Calm,Calm,-,N/A,,Scattered Clouds,0,2013-08-26 11:47:00
8:50 AM,78.8,75.2,89,30.14,7.0,Variable,4.6,-,N/A,,Partly Cloudy,0,2013-08-26 12:50:00
9:50 AM,80.6,73.4,79,30.14,7.0,Variable,5.8,-,N/A,,Scattered Clouds,0,2013-08-26 13:50:00
10:50 AM,80.6,73.4,79,30.14,7.0,Variable,5.8,-,N/A,,Scattered Clouds,0,2013-08-26 14:50:00
11:50 AM,84.2,71.6,66,30.14,7.0,Variable,6.9,-,N/A,,Scattered Clouds,0,2013-08-26 15:50:00
12:50 PM,86.0,69.8,58,30.12,7.0,Variable,5.8,-,N/A,,Scattered Clouds,0,2013-08-26 16:50:00
1:50 PM,84.2,71.6,66,30.11,4.0,ENE,5.8,-,N/A,Rain,Rain,70,2013-08-26 17:50:00
2:50 PM,75.2,75.2,100,30.10,7.0,Variable,3.5,-,N/A,,Mostly Cloudy,0,2013-08-26 18:50:00
3:35 PM,78.8,75.2,89,30.08,7.0,North,5.8,-,N/A,,Partly Cloudy,350,2013-08-26 19:35:00
3:55 PM,78.8,73.4,83,30.07,8.0,North,8.1,-,N/A,,Clear,350,2013-08-26 19:55:00
4:15 PM,78.8,73.4,83,30.05,8.0,North,5.8,-,N/A,,Clear,360,2013-08-26 20:15:00
4:35 PM,78.8,71.6,78,30.05,9.0,North,5.8,-,N/A,,Clear,360,2013-08-26 20:35:00
4:55 PM,80.6,71.6,74,30.05,8.0,North,11.5,-,N/A,,Clear,350,2013-08-26 20:55:00
5:15 PM,82.4,71.6,70,30.04,8.0,North,9.2,-,N/A,,Clear,10,2013-08-26 21:15:00
5:35 PM,82.4,73.4,74,30.03,9.0,NNE,11.5,-,N/A,,Clear,20,2013-08-26 21:35:00
5:55 PM,82.4,73.4,74,30.03,8.0,North,5.8,-,N/A,,Clear,360,2013-08-26 21:55:00
6:15 PM,82.4,73.4,74,30.03,6.0,North,5.8,-,N/A,,Haze,10,2013-08-26 22:15:00
6:35 PM,84.2,73.4,70,30.03,6.0,ENE,8.1,-,N/A,,Haze,70,2013-08-26 22:35:00
6:55 PM,84.2,71.6,66,30.04,8.0,NE,9.2,-,N/A,,Partly Cloudy,50,2013-08-26 22:55:00
7:15 PM,80.6,73.4,79,30.05,7.0,NE,9.2,16.1,N/A,Thunderstorm,Thunderstorm,40,2013-08-26 23:15:00
7:35 PM,75.2,75.2,100,30.05,-9999.0,ENE,6.9,19.6,0.39,Rain,Heavy Rain,70,2013-08-26 23:35:00
7:55 PM,75.2,75.2,100,30.06,8.0,Calm,Calm,-,0.40,Thunderstorm,Thunderstorm,0,2013-08-26 23:55:00
8:15 PM,75.2,75.2,100,30.07,8.0,Calm,Calm,-,N/A,Thunderstorm,Mostly Cloudy,0,2013-08-27 00:15:00
8:35 PM,75.2,75.2,100,30.07,9.0,NNW,3.5,-,N/A,,Mostly Cloudy,340,2013-08-27 00:35:00
8:55 PM,75.2,75.2,100,30.08,9.0,Calm,Calm,-,N/A,,Scattered Clouds,0,2013-08-27 00:55:00
9:15 PM,75.2,75.2,100,30.08,8.0,SSE,4.6,-,N/A,,Clear,160,2013-08-27 01:15:00
9:35 PM,75.2,75.2,100,30.09,8.0,South,3.5,-,N/A,,Clear,170,2013-08-27 01:35:00
9:55 PM,75.2,75.2,100,30.09,8.0,South,3.5,-,N/A,,Clear,170,2013-08-27 01:55:00
10:15 PM,73.4,73.4,100,30.08,8.0,Calm,Calm,-,N/A,,Clear,0,2013-08-27 02:15:00
10:35 PM,75.2,75.2,100,30.08,9.0,Calm,Calm,-,N/A,,Clear,0,2013-08-27 02:35:00
10:55 PM,75.2,75.2,100,30.09,9.0,Calm,Calm,-,N/A,,Clear,0,2013-08-27 02:55:00
11:15 PM,75.2,75.2,100,30.10,9.0,Calm,Calm,-,N/A,,Clear,0,2013-08-27 03:15:00
11:35 PM,73.4,73.4,100,30.09,9.0,Calm,Calm,-,N/A,,Clear,0,2013-08-27 03:35:00
11:55 PM,73.4,73.4,100,30.09,9.0,North,3.5,-,N/A,,Clear,360,2013-08-27 03:55:00